Location: Zagreb
(45.8000°N, 16.0000°E)
Time: 00:16:45
(UTC+01:00)

Transit 2A Rocket - Pass Details

Date: 10 October 2020
Orbit: 586 x 916 km, 66.7° (Epoch: 28 October)

Event Time Altitude Azimuth Distance (km) Brightness Sun altitude
Rises 15:17:54 0° 218° (SW) 3,524 9.7 26.9°
Reaches altitude 10° 15:20:25 10° 220° (SW) 2,598 9.6 26.6°
Maximum altitude 15:26:32 73° 305° (NW) 955 6.0 25.9°
Drops below altitude 10° 15:32:33 10° 30° (NNE) 2,563 7.3 25.1°
Sets 15:35:02 0° 33° (NNE) 3,473 7.8 24.8°
